Home   Weather   Columbus   Past weeks

Flag for USA Past Weather in Columbus, Ohio, USA — Yesterday and Last 2 Weeks

Now
75 °F

Cloudy.


Feels Like: 75 °F
Forecast: 69 / 82 °F
Wind: 6 mph from South

Location: Port Columbus International Airport

Current Time: Aug 31, 2016 at 7:45:46 PM

Latest Report: Aug 31, 2016 at 6:51 PM


Visibility: 10 mi

Pressure: 29.91 "Hg

Humidity: 85%

Dew Point: 70 °F

Location of ColumbusLocation

Past Weather in Columbus — Graph

°F

Columbus Temperature Yesterday

Maximum temperature yesterday: 87 °F (at 3:51 PM)
Minimum temperature yesterday: 64 °F (at 5:51 AM)
Average temperature yesterday: 76 °F

High & Low Weather Summary for the Past Weeks

 TemperatureHumidityPressure
High90 °F (Aug 27, 3:51 PM)100% (Aug 17, 5:51 AM)30.30 "Hg (Aug 17, 5:51 AM)
Low56 °F (Aug 23, 6:51 AM)39% (Aug 22, 3:51 PM)29.72 "Hg (Aug 20, 5:51 PM)
Average75 °F77%30.06 "Hg
* Reported Aug 16 5:51 PM — Aug 31 5:51 PM, Columbus, Weather by CustomWeather, © 2016

Note: Actual official high and low records may vary slightly from our data, if they occured in-between our weather recording intervals... More about our weather records

Advertising

Columbus Weather History for the Previous 24 Hours

Scroll right to see more
 ConditionsComfort  
Time TempWeatherWind HumidityBarometerVisibility
5:51 PM
Wed, Aug 31
75 °FOvercast.No wind82%29.90 "Hg10 mi
4:51 PM74 °FMostly cloudy.9 mph88%29.92 "Hg10 mi
3:51 PM78 °FPartly sunny.6 mph82%29.90 "Hg10 mi
2:51 PM77 °FLight rain. Mostly cloudy.7 mph77%29.92 "Hg6 mi
1:51 PM83 °FBroken clouds.8 mph61%29.93 "Hg10 mi
12:51 PM81 °FBroken clouds.10 mph62%29.95 "Hg10 mi
11:51 AM81 °FPartly sunny.7 mph62%29.96 "Hg10 mi
10:51 AM80 °FBroken clouds.6 mph64%29.98 "Hg10 mi
9:51 AM77 °FBroken clouds.6 mph74%29.98 "Hg10 mi
8:51 AM75 °FBroken clouds.No wind74%29.99 "Hg10 mi
7:51 AM71 °FPartly cloudy.3 mph81%29.99 "Hg10 mi
6:51 AM70 °FPassing clouds.3 mph84%29.99 "Hg10 mi
5:51 AM70 °FMostly cloudy.No wind84%29.98 "Hg10 mi
4:51 AM71 °FMostly cloudy.No wind78%29.99 "Hg10 mi
3:51 AM71 °FMostly cloudy.No wind81%29.99 "Hg10 mi
2:51 AM70 °FMostly cloudy.No wind87%30.00 "Hg10 mi
1:51 AM73 °FMostly cloudy.No wind74%30.02 "Hg10 mi
12:51 AM71 °FOvercast.No wind78%30.02 "Hg10 mi
11:51 PM
Tue, Aug 30
72 °FMostly cloudy.3 mph76%30.03 "Hg10 mi
10:51 PM72 °FHigh level clouds.No wind76%30.04 "Hg10 mi
9:51 PM75 °FPassing clouds.3 mph69%30.04 "Hg10 mi
8:51 PM76 °FScattered clouds.No wind64%30.03 "Hg10 mi
7:51 PM83 °FPartly sunny.6 mph43%30.02 "Hg10 mi
Weather by CustomWeather, © 2016

See weather overviewHow to use our weather pages